Reflectivity
-20 -20 -20 -13 -20 -3 3 -8 7 -6 18 24 13 15 4 10 -20 -20 -20 -20 -20 -20 -20 -20 -20 -20 -20 -20 -20 -20 -20 -20 -20 -20 -20 -20 -20 -20 -20 -20 -20 -20 -20 -20 -20 -20 -20 -20 -20 -20 -20 -20 -20 -20
-20 -20 -20 -2 -20 -4 1 -20 -13 16 -13 6 17 15 12 -13 -20 -20 -20 -20 -20 -20 -20 -20 -20 -20 -20 -20 -20 -20 -20 -20 -20 -20 -20 -20 -20 -20 -20 -20 -20 -20 -20 -20 -20 -20 -20 -20 -20 -20 -20 -20 -20 -20
-20 -20 -20 3 -2 0 6 -20 -20 19 18 3 -20 14 17 18 10 -20 -20 -20 -20 -20 -20 -20 -20 -20 -20 -20 -20 -20 -20 -20 -20 -20 -20 -20 -20 -20 -20 -20 -20 -20 -20 -20 -20 -20 -20 -20 -20 -20 -20 -20 -20 -20
-20 -20 -20 1 -5 -2 -19 -20 -20 -16 -1 10 10 14 10 11 -15 -20 -20 -20 -20 -20 -20 -20 -20 -20 -20 -20 -20 -20 -20 -20 -20 -20 -20 -20 -20 -20 -20 -20 -20 -20 -20 -20 -20 -20 -20 -20 -20 -20 -20 -20 -20 -20
-20 -20 -20 9 -20 -16 -19 -20 -20 -20 -20 -10 13 8 -20 -20 -20 -20 -20 -20 -20 -20 -20 -20 -20 -20 -20 -20 -20 -20 -20 -20 -20 -20 -20 -20 -20 -20 -20 -20 -20 -20 -20 -20 -20 -20 -20 -20 -20 -20 -20 -20 -20 -20
-20 -20 -20 -1 -16 -20 0 -20 -20 -20 -20 -20 -12 -8 -20 -20 -20 -20 -20 -20 -20 -20 -20 -20 -20 -20 -20 -20 -20 -20 -20 -20 -20 -20 -20 -20 -20 -20 -20 -20 -20 -20 -20 -20 -20 -20 -20 -20 -20 -20 -20 -20 -20 -20
-20 -20 -15 13 -8 -16 -9 -20 -20 -20 -20 -20 10 13 -20 -20 -20 -20 -20 -20 -20 -20 -20 -20 -20 -20 -20 -20 -20 -20 -20 -20 -20 -20 -20 -20 -20 -20 -20 -20 -20 -20 -20 -20 -20 -20 -20 -20 -20 -20 -20 -20 -20 -20
-20 -20 -18 12 -12 -0 -20 -20 -20 -20 -16 -20 -1 13 -20 -20 -20 -20 -20 -20 -20 -20 -20 -20 -20 -20 -20 -20 -20 -20 -20 -20 -20 -20 -20 -20 -20 -20 -20 -20 -20 -20 -20 -20 -20 -20 -20 -20 -20 -20 -20 -20 -20 -20
-20 -20 4 9 -20 -18 -20 -20 -2 -2 13 -20 -20 -20 -20 -20 -20 -20 -20 -20 -20 -20 -20 -20 -20 -20 -20 -20 -20 -20 -20 -20 -20 -20 -20 -20 -20 -20 -20 -20 -20 -20 -20 -20 -20 -20 -20 -20 -20 -20 -20 -20 -20 -20
-20 -20 -11 -8 -20 -20 -20 -20 15 2 16 -2 -20 -20 -20 -20 -20 -20 -20 -20 -20 -20 -20 -20 -20 -20 -20 -20 -20 -20 -20 -20 -20 -20 -20 -20 -20 -20 -20 -20 -20 -20 -20 -20 -20 -20 -20 -20 -20 -20 -20 -20 -20 -20
-20 -20 -3 -20 -20 -20 -20 -20 22 12 6 -15 -20 -20 -20 -20 -20 -20 -20 -20 -20 -20 -20 -20 -20 -20 -20 -20 -20 -20 -20 -20 -20 -20 -20 -20 -20 -20 -20 -20 -20 -20 -20 -20 -20 -20 -20 -20 -20 -20 -20 -20 -20 -20
-20 -20 -20 -20 -20 -20 -11 -20 20 7 -20 -20 -20 -20 -20 -20 -20 -20 -20 -20 -20 -20 -20 -20 -20 -20 -20 -20 -20 -20 -20 -20 -20 -20 -20 -20 -20 -20 -20 -20 -20 -20 -20 -20 -20 -20 -20 -20 -20 -20 -20 -20 -20 -20
-20 -20 -20 -20 -20 1 12 -20 16 17 -5 -20 -18 -20 -20 -20 -20 -20 -20 -20 -20 -4 -20 -20 -20 -20 -20 -20 -20 -20 -20 -20 -20 -20 -20 -20 -20 -20 -20 -20 -20 -20 -20 -20 -20 -20 -20 -20 -20 -20 -20 -20 -20 -20
-20 -20 -3 -20 -19 10 16 -14 9 22 8 -18 -7 -19 -11 -20 -20 -20 -20 -20 -20 -17 -20 -20 -20 -20 -20 -20 -20 -20 -20 -20 -20 -20 -20 -20 -20 -20 -20 -20 -20 -20 -20 -20 -20 -20 -20 -20 -20 -20 -20 -20 -20 -20
-20 -20 0 -20 0 -20 16 15 2 20 12 -9 -9 -20 -20 -20 -20 -20 -20 -20 -20 -17 -20 -20 -20 -20 -20 -20 -20 -20 -20 -20 -20 -20 -20 -20 -20 -20 -20 -20 -20 -20 -20 -20 -20 -20 -20 -20 -20 -20 -20 -20 -20 -20
-20 -6 -5 -20 2 8 11 16 6 18 19 4 -18 -20 -20 -20 -20 -20 -20 -20 -20 -20 -20 -20 -20 -20 -20 -20 -20 -20 -20 -20 -20 -20 -20 -20 -20 -20 -20 -20 -20 -20 -20 -20 -20 -20 -20 -20 -20 -20 -20 -20 -20 -20
-15 13 -18 -16 16 20 7 -16 -2 18 14 12 -15 -20 -20 -20 -13 -18 -16 -20 -20 -20 -20 -20 -20 -20 -20 -20 -20 -20 -20 -20 -20 -20 -20 -20 -20 -20 -20 -20 -20 -20 -20 -20 -20 -20 -20 -20 -20 -20 -20 -20 -20 -20
2 2 -20 21 16 17 18 17 -9 2 -0 -20 -20 -20 -20 -20 -3 7 -0 1 -20 -20 -20 -20 -20 -20 -20 -20 -20 -20 -20 -20 -20 -20 -20 -20 -20 -20 -20 -20 -20 -20 -20 -20 -20 -20 -20 -20 -20 -20 -20 -20 -20 -20
6 1 14 20 13 20 15 17 -8 -20 -20 -20 -20 -20 -20 -19 5 2 8 8 -9 -20 -20 -20 -20 -20 -20 -20 -20 -20 -20 -20 -20 -20 -20 -20 -20 -20 -20 -20 -20 -20 -20 -20 -20 -20 -20 -20 -20 -20 -20 -20 -20 -12
10 3 18 16 13 21 13 14 -5 -20 -20 -20 -20 -20 -20 -20 4 12 8 11 13 -2 -20 -20 -20 -20 -20 -20 -20 -20 -20 -20 -20 -20 -20 -20 -20 -20 -20 -20 -20 -20 -20 -20 -20 -20 -20 -20 -20 -20 -20 -20 -20 -20
17 -8 31 29 32 31 -1 -20 -20 -20 -20 -20 -20 -20 -20 -20 2 15 9 9 13 -3 -20 -20 -15 -5 -14 -20 -20 -20 -20 -20 -20 -20 -20 -20 -20 -20 -20 -20 -20 -20 -20 -20 -20 -20 -20 -20 -20 -20 -20 -20 -20 -20
27 22 35 29 14 16 -10 -0 -20 -16 -20 -20 -20 -20 -20 -16 9 15 14 14 -5 -20 -20 -17 -2 -2 -1 -3 -20 -20 -20 -20 -20 -20 -20 -20 -20 -20 -20 -20 -20 -20 -20 -20 -20 -20 -20 -20 -20 -20 -20 -20 -20 -20
28 23 23 17 11 11 16 -11 -19 -0 -1 -14 -20 -9 -4 9 14 16 16 8 -18 -0 -5 -14 -7 -9 -14 -19 -18 -20 -20 -20 -20 -20 -20 -20 -20 -20 -20 -20 -20 -20 -20 -20 -20 -20 -20 -20 -20 -20 -20 -20 -20 -20
22 26 14 14 11 10 10 -9 -20 -20 -18 -4 -3 -6 -5 3 8 12 11 -14 -3 10 2 -1 1 6 5 4 -18 -20 -20 -20 -20 -20 -20 -20 -20 -20 -20 -20 -20 -20 -20 -20 -20 -20 -20 -20 -20 -20 -20 -20 -20 -20
19 21 16 15 6 -20 -20 -20 -20 -15 -1 -20 -20 -19 -19 2 6 7 -3 3 7 2 -8 -4 -0 -3 -3 -5 -20 -20 -20 -20 -20 -20 -20 -20 -20 -20 -20 -20 -20 -20 -20 -20 -20 -20 -20 -20 -20 -20 -20 -20 -20 -20
19 21 13 8 -20 -20 -20 -20 -20 -20 -20 -20 -20 -20 -20 3 4 -3 -19 11 10 2 -17 -15 3 4 -2 -20 -20 -20 -20 -20 -20 -20 -20 -20 -20 -20 -20 -20 -20 -20 -20 -20 -20 -20 -20 -20 -20 -20 -20 -20 -20 -20
23 22 15 -19 -20 -20 -20 -20 -20 -20 -20 -20 -20 -20 -20 -4 1 -19 4 13 9 3 3 6 5 -1 -15 -20 -20 -20 -20 -20 -20 -20 -20 -20 -20 -20 -20 -20 -20 -20 -20 -20 -20 -20 -20 -20 -20 -20 -20 -20 -20 -20
23 15 -15 -20 -20 -20 -20 -20 -20 -20 -20 -20 -20 -20 -20 -20 -19 -6 13 15 12 3 -2 -1 -7 -7 -20 -20 -20 -20 -20 -20 -20 -20 -20 -20 -20 -20 -20 -20 -20 -17 -20 -20 -20 -20 -20 -20 -20 -20 -20 -20 -20 -20
12 -15 -20 -20 -20 -20 -20 -20 -20 -20 -20 -20 -20 -20 -20 -20 -18 1 14 16 11 -3 -8 -5 4 -7 -20 -20 -20 -20 -20 -20 -20 -20 -20 -20 -20 -20 -20 -20 -20 -20 -20 -20 -20 -20 -18 -20 -20 -20 -20 -20 -20 -20
-20 -20 -20 -20 -20 -20 -20 -20 -20 -20 -20 -20 -20 -20 -14 0 14 11 9 9 6 -6 -2 5 -6 -20 -20 -20 -20 -20 -20 -20 -20 -20 -20 -20 -20 -20 -20 -20 -20 -20 -20 -20 -20 -20 -20 -20 -20 -20 -20 -20 -20 -20
-20 -20 -20 -17 -19 -20 -20 -20 -20 -20 -17 -3 -5 0 10 15 11 5 4 6 2 4 -2 -14 -20 -20 -20 -20 -20 -20 -20 -20 -20 -20 -20 -20 -20 -20 -20 -20 -20 -20 -20 -20 -20 -20 -20 -20 -20 -20 -20 -20 -20 -20
-20 -20 -20 -20 -20 -20 -20 -20 -20 -20 -20 -7 -3 10 14 9 1 1 3 6 -6 -8 -19 -20 -20 -18 -20 -20 -20 -20 -20 -20 -20 -20 -20 -20 -20 -20 -20 -20 -20 -20 -20 -20 -20 -20 -20 -20 -20 -20 -20 -20 -20 -20
-20 -20 -20 -20 -20 -20 -20 -10 3 -7 -20 -2 12 15 12 5 4 3 9 2 -0 -4 -20 -16 -8 -16 -20 -20 -20 -20 -20 -20 -20 -20 -20 -20 -20 -20 -20 -20 -20 -20 -20 -20 -20 -20 -20 -20 -20 -20 -20 -20 -20 -20
Wind_Speed
11 16 16 18 21 23 22 21 21 20 10 10 10 10 10 10 5 5 0 3 5 4 2 2 3 3 2 1 4 3 3 3 3 3 2 2 2 2 1 1 2 4 4 2 1 1 6 1 2 3 3 0 2 2
10 13 15 17 20 20 20 20 19 16 7 5 6 9 9 7 5 5 4 2 3 6 4 0 1 1 1 2 3 3 3 1 3 5 1 2 1 1 3 2 0 2 5 3 7 6 1 1 1 1 3 4 3 2
10 12 13 14 18 19 18 16 14 13 5 6 5 3 3 9 13 8 3 1 4 4 3 3 3 3 2 1 2 3 2 2 2 1 4 2 2 3 3 5 1 3 2 2 1 2 4 3 2 2 1 2 3 1
10 11 12 13 13 16 15 15 10 11 8 5 6 2 1 6 9 7 3 1 4 4 5 3 2 2 7 4 3 2 3 3 5 2 3 2 2 2 3 2 3 3 4 3 5 4 2 4 4 4 3 3 2 0
9 13 12 12 14 15 13 13 11 7 11 4 5 3 4 6 9 7 3 2 1 5 4 2 3 2 4 6 6 4 4 3 2 3 3 2 1 2 0 1 4 6 6 5 5 1 2 2 2 5 5 2 2 1
9 12 11 12 13 14 14 12 8 6 9 2 2 3 5 5 3 2 4 3 2 2 5 2 3 4 4 5 7 7 3 3 3 3 2 1 1 3 2 3 4 3 2 2 3 2 3 3 4 3 4 2 1 2
9 11 11 11 12 13 14 12 10 7 5 6 5 2 1 4 4 2 2 3 1 2 4 3 3 2 2 2 3 3 3 2 3 2 1 2 1 3 2 4 3 5 5 4 3 5 2 3 3 5 2 1 2 2
10 10 11 11 12 12 10 9 15 7 11 11 7 4 7 10 7 2 3 2 3 5 4 4 2 3 1 1 1 2 2 2 4 2 1 1 1 1 5 6 3 4 5 4 4 2 3 4 4 3 1 1 3 5
11 9 11 11 11 12 9 5 6 13 9 11 9 5 3 4 1 2 2 4 2 4 4 3 5 4 1 1 1 1 1 2 1 1 1 2 1 6 6 5 6 7 6 5 5 4 4 3 3 2 2 3 4 6
12 10 10 11 10 9 6 0 10 11 11 9 5 4 3 3 6 3 5 2 5 3 3 3 1 2 3 0 1 2 2 1 1 1 1 2 5 4 4 4 4 7 6 7 4 2 2 3 4 4 5 4 6 5
13 10 10 10 9 8 6 6 13 16 8 2 2 1 2 6 3 3 1 2 1 2 2 3 3 4 2 3 3 1 2 0 2 3 3 3 5 4 3 4 4 5 7 5 3 2 2 4 5 5 6 6 5 6
13 12 11 11 10 9 7 10 18 5 4 4 4 3 2 4 3 2 3 3 3 6 2 5 4 3 2 1 3 1 3 2 3 2 3 4 6 3 5 5 5 5 6 4 2 3 5 6 6 6 6 6 6 6
13 13 13 12 11 10 9 12 16 14 10 3 3 3 3 2 2 6 6 5 3 5 5 4 3 3 2 2 3 3 3 3 2 2 5 7 3 2 6 4 5 4 3 1 2 3 5 7 5 5 7 7 8 7
14 13 13 12 12 11 10 14 18 7 4 3 3 3 5 4 6 6 4 2 1 3 8 4 4 3 2 3 3 5 1 3 2 2 8 4 5 4 6 4 5 4 2 2 4 3 6 6 7 7 6 7 7 8
13 12 12 12 13 12 18 20 14 4 2 4 4 7 7 3 2 2 2 1 1 4 5 4 3 3 1 4 2 4 3 5 7 7 5 4 3 5 6 4 4 2 1 2 2 3 5 5 5 8 8 7 6 8
12 10 10 15 13 17 22 18 5 2 2 2 1 2 3 2 2 1 1 2 2 5 2 3 4 3 2 5 4 8 7 8 6 5 3 3 4 5 6 5 4 2 2 3 2 2 3 5 6 7 8 7 7 7
12 4 9 15 17 21 22 6 3 4 5 6 5 3 2 1 4 2 3 3 3 2 3 3 5 7 3 2 4 5 7 5 4 2 2 4 7 7 6 6 5 4 4 4 4 3 4 4 4 3 6 7 7 9
4 6 15 20 16 13 3 2 4 4 7 3 3 3 3 2 3 1 2 2 3 2 2 5 5 3 6 6 5 5 3 1 1 2 3 5 6 6 5 6 4 3 2 2 2 3 3 4 4 5 7 9 9 8
6 8 17 26 10 5 4 2 3 4 6 3 2 1 2 1 2 2 2 3 1 1 3 1 3 4 5 5 4 3 3 3 5 3 3 4 6 6 6 5 4 2 2 2 3 3 3 4 4 4 6 7 7 7
16 17 21 26 12 4 4 1 1 4 4 4 1 1 2 2 2 3 3 3 1 0 2 3 6 4 4 3 3 3 4 6 7 5 3 3 3 5 4 3 1 0 1 2 2 6 2 4 4 5 6 8 8 8
15 11 23 11 3 1 3 4 2 3 3 3 3 4 1 1 2 3 3 2 1 4 4 4 3 1 0 1 2 5 6 5 4 5 5 3 3 3 3 2 1 1 2 2 3 4 5 3 5 5 6 6 6 6
6 15 4 3 3 2 2 2 3 2 3 2 3 3 2 3 3 3 4 2 5 5 4 2 2 2 3 4 3 3 6 8 6 7 9 9 4 2 2 2 2 1 1 1 1 2 3 4 5 5 5 6 8 7
14 4 4 4 4 3 3 1 4 4 4 5 2 3 3 2 1 1 3 4 4 3 2 2 2 1 5 3 5 5 4 7 6 5 5 5 4 3 2 2 3 3 1 1 0 1 2 8 6 6 5 6 6 6
10 5 5 7 5 5 4 3 3 4 3 3 4 4 3 4 4 3 5 4 3 3 4 5 6 5 3 2 2 2 2 3 6 4 3 5 3 2 3 2 2 2 2 0 1 1 2 4 8 5 5 6 6 6
7 8 8 7 4 7 5 4 3 4 4 4 5 2 4 3 4 5 6 4 5 5 6 6 5 5 5 3 2 2 4 3 6 5 1 2 3 2 2 1 2 1 2 2 2 2 3 3 4 4 6 5 7 6
8 8 9 7 5 7 8 8 9 8 5 6 6 2 3 4 3 8 6 7 6 9 12 14 12 6 3 2 7 5 5 3 5 5 2 3 3 4 4 3 1 2 2 1 2 2 4 4 4 6 5 7 12 8
8 7 5 0 5 7 4 3 3 5 7 8 6 6 5 6 8 7 1 3 5 7 10 10 9 9 8 5 3 3 5 4 4 3 4 4 2 2 4 4 4 3 2 3 2 3 4 5 5 5 5 5 4 5
4 7 11 7 3 1 7 5 7 8 6 5 7 8 11 10 8 3 2 0 3 9 9 6 4 5 7 7 7 8 6 5 6 7 5 4 2 1 2 2 0 5 0 2 4 3 3 5 4 4 3 4 5 3
4 5 8 4 3 2 4 6 7 4 5 8 9 5 5 2 1 0 1 1 4 10 11 10 4 7 7 7 4 3 8 8 8 6 5 3 1 4 3 2 2 2 2 2 6 4 5 0 1 1 1 3 4 3
4 2 6 3 7 6 3 2 2 1 1 1 2 3 2 0 1 1 2 2 8 10 9 10 10 9 10 9 6 3 2 1 2 4 5 5 6 3 3 3 2 2 1 1 2 3 4 5 5 5 4 3 3 2
4 3 5 3 3 1 2 0 1 1 2 2 3 3 3 2 1 0 1 1 4 8 11 10 6 7 10 9 7 7 3 3 3 3 4 5 5 4 4 3 2 2 2 2 1 2 2 2 2 3 4 6 7 6
2 3 6 6 2 1 1 2 2 1 1 2 1 2 1 2 1 2 4 4 7 9 12 11 10 8 3 4 4 1 4 9 8 6 8 5 3 4 3 2 3 3 3 3 3 2 2 2 2 3 3 5 6 6
4 2 4 6 4 3 3 4 2 2 1 2 2 2 1 2 5 3 2 1 4 6 8 6 5 7 7 6 6 4 8 7 12 14 13 10 9 7 4 3 4 4 5 4 3 3 3 2 2 3 4 4 5 5
Wind_Direction
325 326 334 335 336 342 352 360 3 355 49 59 58 58 57 76 79 73 148 2 111 98 23 348 355 14 354 32 130 214 58 350 42 68 115 190 130 229 72 235 197 177 134 197 73 82 298 89 325 169 203 223 149 119
321 325 327 333 335 342 348 355 8 353 27 67 49 17 36 46 81 123 69 342 50 79 140 129 103 77 358 273 131 25 154 151 174 94 88 124 141 76 158 252 41 239 180 189 180 216 221 213 233 163 181 165 184 164
311 313 321 332 333 340 344 353 7 10 24 32 48 337 329 70 60 87 123 327 59 93 29 46 342 320 332 314 265 120 276 168 99 157 155 151 133 142 176 244 218 252 147 210 10 214 223 198 190 195 152 138 112 115
298 301 313 322 326 332 338 341 354 8 355 6 332 358 219 47 70 86 84 290 82 106 109 283 326 342 317 332 200 206 146 73 99 70 101 117 148 164 208 208 195 200 132 183 268 268 313 239 218 172 145 108 128 81
284 292 304 315 321 328 332 333 330 358 355 12 19 54 42 56 77 75 85 26 103 122 146 200 318 325 339 16 50 53 89 89 71 53 61 169 113 126 323 44 246 187 184 170 222 214 136 240 204 158 155 166 180 210
268 283 303 307 317 320 325 320 313 314 345 300 3 41 80 48 1 15 29 4 0 87 99 120 302 338 339 15 43 44 40 70 83 110 148 189 238 120 146 231 243 186 181 172 184 165 139 113 133 128 147 166 191 275
264 278 289 297 306 316 320 314 296 290 276 141 136 102 42 59 68 82 206 226 120 75 85 53 344 322 312 10 28 26 27 64 92 118 107 150 194 102 186 228 221 185 158 158 154 133 130 179 192 172 174 167 295 270
253 270 280 292 300 313 320 320 305 204 161 135 120 89 85 86 92 13 323 355 93 91 70 113 277 5 348 58 57 356 58 41 15 129 80 149 45 76 256 232 182 161 141 135 137 108 150 125 133 150 109 291 313 298
247 260 271 283 301 311 316 351 119 125 148 135 123 58 355 29 38 255 287 38 27 124 134 106 149 219 18 62 29 32 49 80 300 91 178 114 194 228 230 186 184 183 177 171 151 145 157 193 208 251 257 273 267 277
241 247 260 269 289 306 305 34 150 136 115 89 60 52 308 301 302 1 5 15 9 341 44 128 127 163 101 52 23 76 359 118 144 256 97 204 256 259 226 200 186 172 152 133 112 234 203 278 230 244 238 244 242 264
236 241 250 262 273 283 241 185 153 121 79 355 91 206 248 322 22 30 277 114 309 318 150 172 170 138 211 122 152 180 170 114 83 252 150 279 271 246 179 172 168 153 163 177 172 155 197 208 229 257 274 256 261 263
229 238 236 261 262 254 212 188 162 119 144 178 148 93 35 40 12 88 243 318 184 227 166 145 178 142 158 145 98 240 128 65 221 143 81 267 251 235 158 155 156 152 154 167 183 252 268 261 250 248 255 263 261 257
224 236 239 244 261 235 211 195 177 129 112 76 53 56 67 274 355 183 213 255 245 169 176 161 131 131 122 94 68 93 99 195 98 101 232 232 248 194 171 154 158 175 172 184 276 279 285 282 280 240 266 255 260 270
220 232 246 249 246 239 208 180 149 119 86 88 111 247 185 246 242 207 221 203 218 122 139 115 109 139 134 85 144 95 186 86 138 240 234 241 214 189 168 150 134 169 189 294 295 306 304 303 298 294 260 264 273 273
220 233 240 251 248 241 178 159 138 40 98 150 142 220 213 250 233 267 278 315 352 139 128 104 68 95 103 107 166 122 151 244 214 226 225 225 197 148 148 145 143 125 330 314 305 315 308 304 298 293 293 287 285 286
214 238 235 234 225 171 156 122 67 70 66 112 297 338 227 34 298 243 204 268 229 153 86 67 117 98 196 143 134 209 154 221 232 210 212 139 126 129 130 122 113 96 35 355 338 306 306 319 305 296 307 299 299 295
209 215 209 189 166 149 132 96 108 159 213 197 241 231 185 183 210 241 175 208 147 145 202 141 145 199 99 82 239 194 208 220 188 170 173 143 137 131 120 106 88 70 50 11 338 340 292 297 293 309 331 325 305 306
210 190 189 168 147 114 46 82 143 193 231 206 170 214 221 169 152 207 195 168 156 232 155 222 131 139 191 190 237 216 191 184 59 128 131 116 113 107 103 105 87 70 53 336 321 299 289 323 338 336 332 329 321 314
168 185 189 158 125 106 122 169 145 216 218 193 237 198 220 241 159 142 172 149 20 325 109 54 116 201 222 215 189 192 159 159 141 149 100 95 109 112 108 96 97 90 47 356 350 335 327 346 327 331 332 324 322 333
195 191 183 158 136 118 122 136 87 133 186 216 101 157 199 215 178 114 112 113 147 34 293 229 221 220 206 221 181 136 141 133 132 111 122 137 119 112 112 117 123 46 35 358 314 10 1 348 346 340 325 334 335 324
174 192 179 114 73 52 123 148 196 202 143 164 184 127 198 251 219 117 137 109 72 226 238 223 249 284 12 87 110 116 123 132 146 153 158 153 162 125 120 120 128 98 67 36 23 351 9 328 319 318 324 324 316 321
116 110 99 82 110 141 98 171 143 133 110 162 118 151 165 223 176 163 139 126 225 239 200 205 217 180 129 117 108 92 121 108 98 97 89 113 120 124 148 159 102 59 351 168 26 322 319 318 313 330 328 318 332 317
117 100 108 132 124 156 158 126 134 140 153 171 121 153 189 213 156 204 202 208 235 207 156 182 140 7 101 75 87 76 74 121 117 115 110 106 104 106 106 119 139 147 143 233 260 305 310 332 323 338 327 326 322 314
119 150 151 163 139 150 153 173 134 118 123 179 177 190 213 177 139 214 242 221 211 129 156 171 145 119 74 71 133 147 163 133 111 83 92 120 130 147 131 140 145 157 138 129 322 307 300 314 333 322 314 313 308 302
133 185 159 169 165 125 133 140 148 152 174 180 164 199 193 166 169 215 228 219 161 174 162 168 176 182 153 125 118 136 224 161 135 128 206 149 115 83 56 73 79 130 139 53 342 310 302 292 289 292 308 306 314 338
191 189 167 155 158 148 166 141 173 171 158 162 205 128 165 161 184 236 213 182 180 172 176 182 176 160 178 198 144 179 193 162 108 100 193 173 157 143 162 134 95 294 211 182 235 268 294 290 291 307 312 326 337 344
160 181 177 58 133 128 106 96 112 136 160 170 180 164 175 188 230 241 201 215 159 184 167 165 166 171 161 141 104 98 105 88 95 144 116 124 129 156 143 151 191 231 242 243 237 257 276 293 298 302 307 308 296 310
127 164 154 179 114 197 131 132 147 181 176 147 140 185 183 194 221 214 210 296 152 131 119 94 82 117 138 132 133 121 86 82 85 86 77 51 35 225 121 116 187 279 15 246 250 257 252 262 282 291 303 300 304 300
138 155 120 99 98 109 164 168 205 208 146 162 173 195 229 238 100 129 300 199 141 139 129 123 92 104 87 76 66 68 131 149 134 130 176 202 252 265 194 210 262 280 258 259 325 331 278 2 343 95 291 279 286 295
191 164 100 119 148 176 205 152 196 241 25 35 72 102 88 34 29 200 189 194 163 156 142 134 141 151 142 148 139 84 301 221 136 141 161 188 203 173 162 201 216 241 238 64 7 333 19 38 20 19 9 352 335 339
121 113 92 75 104 139 182 48 353 72 64 61 356 84 112 138 143 116 119 167 115 120 128 138 149 145 143 145 149 144 187 215 190 183 133 113 126 157 185 189 193 167 137 134 112 90 56 53 29 8 15 11 349 7
112 146 138 111 102 130 106 98 105 111 134 106 95 84 101 200 144 207 190 148 148 151 160 154 152 175 161 102 114 146 150 139 160 173 148 142 165 192 181 165 152 147 157 127 111 113 109 99 46 24 7 354 346 349
118 74 76 101 117 171 174 149 156 126 67 124 138 166 180 184 181 180 215 252 150 145 153 143 105 115 133 139 142 126 127 131 150 158 164 170 185 185 158 150 161 169 136 131 125 117 95 102 55 27 10 354 348 349